Location: Newark
(23.3970°S, 47.6010°W)
Time: 09:27:06
(UTC+00:00)

deb Explorer IX - Pass Details

Date: 25 February 2020
Orbit: 547 x 1101 km, 38.8° (Epoch: 28 March)

Event Time Altitude Azimuth Distance (km) Brightness Sun altitude
Rises 03:49:52 0° 235° (SW) 3,854 - -56.7°
Reaches altitude 10° 03:53:05 10° 223° (SW) 2,939 - -56.5°
Maximum altitude 03:59:04 27° 168° (SSE) 2,000 - -56.2°
Drops below altitude 10° 04:05:01 10° 113° (ESE) 2,927 - -55.8°
Sets 04:08:12 0° 100° (E) 3,834 - -55.5°
